Погода в Вапнярке

Украина / Винницкая область     48°31′54″N   28°44′48″E
темп.,
°C
ветер,
м/с
пор.,
м/с
влажн.,
%
обл.,
%
осадки,
мм/ч
давл.,
гПа
погр.,
м
20 апреля, вт
вт2000:00+6всв3783100 0.1 1014160
03:00+6всв338553 0.1 101252
06:00+4ссв348985 0.0 101263
09:00+8с457392 0.0 1011447
12:00+11с555798 0.3 10091489
15:00+13с445095 0.9 10081681
18:00+12ссз455579 1.1 10081311
21:00+7ссз33805 1.6 101048
21 апреля, ср
ср2100:00+7сз228049 0.0 101012
03:00+6зсз228395 0.1 101117
06:00+5зсз2386100 0.0 101246
09:00+9зсз347452 0.0 1013472
12:00+12зсз455881 0.4 10131575
15:00+13зсз355099 0.6 10131701
18:00+13з355598 0.0 10131248
21:00+10юз2366100 0.0 101523
22 апреля, чт
чт2200:00+8ююз36729 0.0 101581
03:00+8ююз33725 0.1 101628
06:00+7ююз337630 0.0 101632
09:00+11юз466626 0.0 1017308
12:00+15юз56505 0.0 10171193
15:00+17ююз564222 0.0 10152285
18:00+15ююз3752100 0.0 1015214
21:00+13ю366126 0.0 1015138
23 апреля, пт
пт2300:00+10с238797 2.1 101572
03:00+9ююв228711 2.7 101416
06:00+7сз359548 0.0 101599
09:00+7с4485100 0.0 1016448
12:00+6ссз5587100 0.0 1018537
15:00+3ссз5895100 1.0 1019479
18:00+6ссз478099 1.4 1018731
21:00+5зсз22865 1.4 101912
24 апреля, сб
сб2400:00+4зсз33865 0.0 102045
03:00+2зсз378481 0.0 1020115
06:00+2зсз398532 0.0 1020207
09:00+5сз587221 0.0 1021673
12:00+8зсз5745100 0.0 10211805
15:00+9зсз8114499 0.0 10202394
18:00+9сз711466 0.0 10202442
21:00+4сз36612 0.0 1022105